Radiation Dose at Monitoring Post of Fukushima Daini Nuclear Power Station
Date,Time,MP-1(microSv/h),MP-2(microSv/h),MP-3(microSv/h),MP-4(microSv/h),MP-5(microSv/h),MP-6(microSv/h),MP-7(microSv/h),Wind Direction,Wind Velocity(m/s),Rain
2015/12/29,00:00,0.459,0.269,0.482,0.439,0.421,0.220,0.194,west-northwest,6.4,No
2015/12/29,00:10,0.460,0.269,0.482,0.440,0.420,0.221,0.193,west-northwest,5.2,No
2015/12/29,00:20,0.459,0.269,0.483,0.439,0.418,0.222,0.194,west-northwest,5.1,No
2015/12/29,00:30,0.457,0.269,0.482,0.438,0.419,0.221,0.194,west-northwest,4.2,No
2015/12/29,00:40,0.458,0.268,0.482,0.439,0.420,0.221,0.194,west-northwest,4.6,No
2015/12/29,00:50,0.458,0.269,0.483,0.438,0.419,0.220,0.195,west-northwest,3.4,No
2015/12/29,01:00,0.459,0.268,0.484,0.438,0.419,0.222,0.194,northwest,5.1,No
2015/12/29,01:10,0.457,0.269,0.482,0.438,0.418,0.221,0.193,northwest,4.8,No
2015/12/29,01:20,0.458,0.270,0.483,0.438,0.419,0.220,0.194,west-northwest,7.0,No
2015/12/29,01:30,0.459,0.269,0.481,0.438,0.418,0.220,0.194,west-northwest,7.3,No
2015/12/29,01:40,0.459,0.268,0.484,0.440,0.418,0.221,0.193,west-northwest,6.4,No
2015/12/29,01:50,0.457,0.268,0.482,0.440,0.418,0.221,0.193,northwest,4.0,No
2015/12/29,02:00,0.457,0.268,0.481,0.438,0.419,0.220,0.193,north,6.2,No
2015/12/29,02:10,0.459,0.269,0.482,0.439,0.418,0.220,0.193,north-northwest,5.9,No
2015/12/29,02:20,0.457,0.269,0.483,0.439,0.419,0.221,0.193,northwest,7.9,No
2015/12/29,02:30,0.458,0.268,0.482,0.440,0.417,0.221,0.194,northwest,9.5,No
2015/12/29,02:40,0.459,0.268,0.483,0.440,0.419,0.221,0.194,northwest,10.0,No
2015/12/29,02:50,0.459,0.269,0.483,0.440,0.419,0.222,0.194,west-northwest,10.1,No
2015/12/29,03:00,0.460,0.269,0.485,0.440,0.420,0.220,0.193,west-northwest,9.0,No
2015/12/29,03:10,0.458,0.269,0.484,0.440,0.420,0.221,0.194,west-northwest,9.2,No
2015/12/29,03:20,0.458,0.271,0.482,0.438,0.419,0.222,0.194,northwest,9.3,No
2015/12/29,03:30,0.459,0.270,0.483,0.437,0.420,0.221,0.193,west-northwest,8.9,No
2015/12/29,03:40,0.461,0.270,0.485,0.439,0.420,0.220,0.194,west-northwest,9.8,No
2015/12/29,03:50,0.460,0.270,0.484,0.440,0.419,0.221,0.193,west-northwest,10.7,No
2015/12/29,04:00,0.457,0.268,0.483,0.439,0.417,0.222,0.193,northwest,10.0,No
2015/12/29,04:10,0.459,0.268,0.483,0.438,0.418,0.220,0.193,northwest,8.9,No
2015/12/29,04:20,0.458,0.269,0.484,0.438,0.418,0.220,0.193,northwest,8.8,No
2015/12/29,04:30,0.459,0.270,0.484,0.440,0.419,0.222,0.193,northwest,7.6,No
2015/12/29,04:40,0.457,0.270,0.484,0.440,0.419,0.221,0.193,north-northwest,7.0,No
2015/12/29,04:50,0.459,0.269,0.483,0.438,0.420,0.222,0.193,northwest,7.6,No
2015/12/29,05:00,0.460,0.269,0.485,0.439,0.420,0.221,0.193,northwest,6.2,No
2015/12/29,05:10,0.459,0.269,0.484,0.439,0.418,0.221,0.195,north-northwest,7.0,No
2015/12/29,05:20,0.459,0.270,0.482,0.441,0.420,0.222,0.193,north,6.2,No
2015/12/29,05:30,0.459,0.270,0.483,0.439,0.421,0.222,0.193,north,5.5,No
2015/12/29,05:40,0.458,0.270,0.483,0.439,0.419,0.221,0.193,north-northwest,4.9,No
2015/12/29,05:50,0.458,0.269,0.485,0.437,0.420,0.222,0.193,north-northwest,4.4,No
2015/12/29,06:00,0.459,0.270,0.484,0.441,0.419,0.221,0.193,west-northwest,6.6,No
2015/12/29,06:10,0.459,0.270,0.484,0.439,0.420,0.221,0.193,northwest,7.6,No
2015/12/29,06:20,0.460,0.270,0.484,0.438,0.421,0.221,0.194,northwest,5.7,No
2015/12/29,06:30,0.460,0.269,0.483,0.437,0.418,0.221,0.194,northwest,4.1,No
2015/12/29,06:40,0.460,0.268,0.480,0.438,0.419,0.220,0.193,northwest,4.2,No
2015/12/29,06:50,0.458,0.269,0.482,0.440,0.418,0.221,0.193,north,4.3,No
2015/12/29,07:00,0.458,0.269,0.482,0.439,0.418,0.221,0.194,northeast,1.7,No
2015/12/29,07:10,0.459,0.269,0.483,0.439,0.419,0.220,0.194,north-northeast,2.2,No
2015/12/29,07:20,0.457,0.269,0.483,0.439,0.417,0.221,0.193,north-northeast,1.5,No
2015/12/29,07:30,0.458,0.269,0.481,0.438,0.417,0.221,0.193,-,CALM,No
2015/12/29,07:40,0.459,0.269,0.482,0.437,0.417,0.221,0.193,northeast,0.8,No
2015/12/29,07:50,0.459,0.270,0.483,0.437,0.418,0.220,0.194,west-southwest,0.8,No
2015/12/29,08:00,0.459,0.269,0.482,0.437,0.418,0.221,0.193,west-southwest,2.8,No
2015/12/29,08:10,0.458,0.269,0.484,0.439,0.419,0.221,0.193,south-southwest,1.7,No
2015/12/29,08:20,0.458,0.267,0.481,0.439,0.418,0.220,0.193,southwest,0.8,No
2015/12/29,08:30,0.458,0.268,0.482,0.436,0.418,0.219,0.193,northwest,2.4,No
2015/12/29,08:40,0.458,0.268,0.482,0.437,0.418,0.220,0.193,west,2.4,No
2015/12/29,08:50,0.457,0.269,0.482,0.436,0.418,0.220,0.192,west-southwest,2.5,No
2015/12/29,09:00,0.456,0.269,0.481,0.436,0.419,0.220,0.193,west,4.4,No
2015/12/29,09:10,0.459,0.270,0.482,0.438,0.417,0.220,0.193,west,4.5,No
2015/12/29,09:20,0.459,0.270,0.482,0.437,0.418,0.221,0.193,southwest,2.0,No
2015/12/29,09:30,0.459,0.268,0.479,0.437,0.419,0.220,0.192,west-southwest,3.6,No
2015/12/29,09:40,0.457,0.268,0.482,0.437,0.419,0.220,0.193,west-southwest,5.9,No
2015/12/29,09:50,0.460,0.269,0.482,0.436,0.418,0.221,0.193,west,5.0,No
2015/12/29,10:00,0.458,0.267,0.482,0.440,0.419,0.220,0.193,west-southwest,3.8,No
2015/12/29,10:10,0.459,0.267,0.483,0.441,0.419,0.220,0.195,west-northwest,1.6,No
2015/12/29,10:20,0.461,0.269,0.482,0.439,0.418,0.221,0.194,northwest,2.2,No
2015/12/29,10:30,0.458,0.269,0.480,0.440,0.418,0.220,0.195,west,2.0,No
2015/12/29,10:40,0.460,0.269,0.481,0.438,0.418,0.221,0.193,west-northwest,1.4,No
2015/12/29,10:50,0.460,0.269,0.482,0.435,0.420,0.220,0.193,west-northwest,5.3,No
2015/12/29,11:00,0.458,0.269,0.481,0.438,0.418,0.221,0.192,west-northwest,4.7,No
2015/12/29,11:10,0.458,0.267,0.482,0.436,0.420,0.221,0.193,west-northwest,7.6,No
2015/12/29,11:20,0.458,0.268,0.483,0.437,0.419,0.220,0.193,west-northwest,10.4,No
2015/12/29,11:30,0.456,0.268,0.480,0.438,0.419,0.220,0.193,northwest,11.5,No
2015/12/29,11:40,0.461,0.268,0.481,0.437,0.422,0.221,0.193,northwest,9.8,No
2015/12/29,11:50,0.460,0.269,0.483,0.440,0.419,0.221,0.194,northwest,10.6,No
2015/12/29,12:00,0.458,0.269,0.480,0.436,0.422,0.222,0.193,northwest,10.1,No
2015/12/29,12:10,0.460,0.268,0.482,0.438,0.422,0.220,0.192,northwest,9.8,No
2015/12/29,12:20,0.456,0.270,0.482,0.438,0.418,0.221,0.194,west-northwest,9.5,No
2015/12/29,12:30,0.458,0.270,0.481,0.437,0.423,0.221,0.193,west,10.0,No
2015/12/29,12:40,0.461,0.269,0.483,0.440,0.419,0.221,0.193,west-northwest,8.7,No
2015/12/29,12:50,0.459,0.269,0.480,0.438,0.422,0.221,0.193,northwest,8.6,No
2015/12/29,13:00,0.463,0.268,0.482,0.440,0.422,0.221,0.192,west-northwest,6.8,No
2015/12/29,13:10,0.460,0.269,0.481,0.438,0.421,0.222,0.193,west-northwest,6.7,No
2015/12/29,13:20,0.459,0.269,0.484,0.439,0.419,0.221,0.194,west-northwest,10.3,No
2015/12/29,13:30,0.462,0.269,0.482,0.440,0.421,0.221,0.194,west-northwest,5.8,No
2015/12/29,13:40,0.459,0.269,0.482,0.438,0.420,0.221,0.193,west-northwest,4.4,No
2015/12/29,13:50,0.461,0.270,0.484,0.441,0.421,0.220,0.193,northwest,4.9,No
2015/12/29,14:00,0.462,0.268,0.480,0.436,0.421,0.222,0.194,west-northwest,5.6,No
2015/12/29,14:10,0.460,0.270,0.484,0.440,0.420,0.221,0.195,west,9.5,No
2015/12/29,14:20,0.461,0.268,0.483,0.439,0.421,0.221,0.193,west,9.2,No
2015/12/29,14:30,0.463,0.269,0.482,0.440,0.421,0.221,0.193,west-northwest,6.8,No
2015/12/29,14:40,0.461,0.269,0.484,0.442,0.419,0.220,0.193,west-northwest,8.6,No
2015/12/29,14:50,0.460,0.269,0.485,0.440,0.420,0.221,0.193,west-northwest,9.0,No
2015/12/29,15:00,0.463,0.269,0.483,0.440,0.420,0.220,0.193,west,8.9,No
2015/12/29,15:10,0.461,0.269,0.484,0.441,0.420,0.220,0.195,west-northwest,7.3,No
2015/12/29,15:20,0.460,0.271,0.483,0.438,0.421,0.221,0.195,west-northwest,7.0,No
2015/12/29,15:30,0.460,0.270,0.483,0.442,0.422,0.221,0.195,west,7.6,No
2015/12/29,15:40,0.462,0.269,0.482,0.441,0.419,0.221,0.195,west,6.5,No
2015/12/29,15:50,0.459,0.270,0.484,0.441,0.418,0.220,0.195,west-northwest,7.8,No
2015/12/29,16:00,0.462,0.270,0.481,0.440,0.421,0.222,0.194,west-northwest,5.5,No
2015/12/29,16:10,0.461,0.269,0.483,0.441,0.420,0.222,0.194,west-northwest,5.4,No
2015/12/29,16:20,0.461,0.269,0.484,0.442,0.421,0.220,0.194,west-northwest,5.8,No
2015/12/29,16:30,0.463,0.270,0.484,0.439,0.420,0.221,0.194,west-northwest,7.0,No
2015/12/29,16:40,0.458,0.271,0.483,0.442,0.420,0.222,0.194,west-northwest,6.8,No
2015/12/29,16:50,0.461,0.270,0.483,0.441,0.420,0.221,0.195,west-northwest,7.5,No
2015/12/29,17:00,0.459,0.270,0.484,0.440,0.421,0.221,0.195,west-northwest,7.0,No
2015/12/29,17:10,0.460,0.270,0.484,0.440,0.419,0.222,0.194,west-northwest,7.7,No
2015/12/29,17:20,0.461,0.270,0.482,0.441,0.419,0.221,0.194,northwest,7.8,No
2015/12/29,17:30,0.460,0.270,0.484,0.442,0.422,0.221,0.195,northwest,6.3,No
2015/12/29,17:40,0.462,0.269,0.483,0.442,0.419,0.221,0.195,north-northwest,6.2,No
2015/12/29,17:50,0.460,0.269,0.482,0.439,0.419,0.221,0.194,north,5.0,No
2015/12/29,18:00,0.460,0.268,0.482,0.440,0.419,0.223,0.195,north-northwest,5.5,No
2015/12/29,18:10,0.460,0.270,0.483,0.442,0.419,0.222,0.194,north,4.9,No
2015/12/29,18:20,0.460,0.269,0.486,0.441,0.421,0.220,0.194,north,4.3,No
2015/12/29,18:30,0.462,0.269,0.485,0.439,0.419,0.222,0.194,north,2.6,No
2015/12/29,18:40,0.459,0.269,0.482,0.441,0.418,0.221,0.193,north,2.4,No
2015/12/29,18:50,0.461,0.270,0.485,0.441,0.420,0.221,0.194,north,2.8,No
2015/12/29,19:00,0.458,0.269,0.485,0.441,0.420,0.222,0.195,north-northeast,2.3,No
2015/12/29,19:10,0.459,0.270,0.485,0.440,0.421,0.222,0.195,northeast,2.1,No
2015/12/29,19:20,0.459,0.270,0.482,0.439,0.420,0.223,0.194,east,1.4,No
2015/12/29,19:30,0.461,0.270,0.483,0.441,0.419,0.221,0.195,east-southeast,0.7,No
2015/12/29,19:40,0.460,0.270,0.484,0.441,0.420,0.221,0.194,northeast,0.7,No
2015/12/29,19:50,0.460,0.270,0.484,0.439,0.420,0.222,0.194,southeast,0.7,No
2015/12/29,20:00,0.460,0.269,0.484,0.438,0.421,0.221,0.195,east-southeast,1.5,No
2015/12/29,20:10,0.460,0.269,0.484,0.440,0.420,0.222,0.195,east,2.3,No
2015/12/29,20:20,0.459,0.269,0.484,0.441,0.420,0.223,0.194,east,1.8,No
2015/12/29,20:30,0.460,0.269,0.484,0.440,0.418,0.220,0.194,east,1.5,No
2015/12/29,20:40,0.460,0.269,0.482,0.439,0.419,0.222,0.195,south-southeast,1.8,No
2015/12/29,20:50,0.461,0.270,0.483,0.441,0.421,0.221,0.194,south-southeast,2.2,No
2015/12/29,21:00,0.457,0.270,0.484,0.440,0.420,0.221,0.194,-,CALM,No
2015/12/29,21:10,0.460,0.270,0.485,0.441,0.419,0.222,0.194,-,CALM,No
2015/12/29,21:20,0.459,0.270,0.483,0.440,0.420,0.221,0.194,northeast,1.1,No
2015/12/29,21:30,0.459,0.270,0.484,0.440,0.420,0.221,0.194,north,2.5,No
2015/12/29,21:40,0.459,0.269,0.484,0.442,0.421,0.222,0.195,north,1.2,No
2015/12/29,21:50,0.461,0.269,0.484,0.439,0.421,0.222,0.195,east-northeast,1.9,No
2015/12/29,22:00,0.460,0.270,0.483,0.441,0.420,0.221,0.195,east,0.7,No
2015/12/29,22:10,0.456,0.270,0.484,0.441,0.420,0.222,0.195,-,CALM,No
2015/12/29,22:20,0.460,0.269,0.483,0.440,0.419,0.221,0.194,-,CALM,No
2015/12/29,22:30,0.460,0.270,0.483,0.441,0.420,0.221,0.194,north-northwest,0.6,No
2015/12/29,22:40,0.460,0.270,0.484,0.439,0.421,0.222,0.194,-,CALM,No
2015/12/29,22:50,0.458,0.269,0.484,0.441,0.420,0.221,0.194,-,CALM,No
2015/12/29,23:00,0.459,0.270,0.482,0.439,0.419,0.221,0.194,-,CALM,No
2015/12/29,23:10,0.459,0.268,0.483,0.440,0.419,0.222,0.193,-,CALM,No
2015/12/29,23:20,0.459,0.269,0.484,0.439,0.418,0.222,0.194,-,CALM,No
2015/12/29,23:30,0.458,0.269,0.485,0.438,0.421,0.222,0.195,-,CALM,No
2015/12/29,23:40,0.459,0.268,0.483,0.441,0.421,0.221,0.195,south,0.8,No
2015/12/29,23:50,0.458,0.269,0.482,0.441,0.421,0.222,0.195,southeast,1.4,No
